Beach, ND

7:12 AM MDT on May 25, 2017 (GMT -0600)
Beach

Weather History for K20U - October, 2012

Change the Weather History Date:

Wednesday, October 17, 2012

  Actual Average (KGDV) Record (KGDV)
Temperature  
Mean Temperature 44 °F -  
Max Temperature 50 °F 54 °F 84 °F (2003)
Min Temperature 37 °F 31 °F 23 °F (1999)
Degree Days  
Heating Degree Days 22    
Moisture  
Dew Point 26 °F    
Average Humidity 53    
Maximum Humidity 100    
Minimum Humidity 28    
Precipitation  
Precipitation 11.58 in - - ()
Sea Level Pressure  
Sea Level Pressure 29.61 in    
Wind  
Wind Speed 33 mph (WNW)    
Max Wind Speed 48 mph    
Max Gust Speed 62 mph    
Visibility 10 miles    
Events Rain    
Averages and records for this station are not official NWS values.
T = Trace of Precipitation, MM = Missing Value Source: NWS Daily Summary

Daily Weather History Graph

Daily Weather History Graph

Search for Another Location

Airport or City:

Trip Planner

Search our weather history database for the weather conditions in past years. The results will help you decide how hot, cold, wet, or windy it might be!

Date:

Astronomy

Oct. 17, 2012 Rise Set
Actual Time 7:17 AM MDT 6:04 PM MDT
Civil Twilight 6:46 AM MDT 6:34 PM MDT
Nautical Twilight 6:11 AM MDT 7:10 PM MDT
Astronomical Twilight 5:36 AM MDT 7:45 PM MDT
Moon 10:06 AM MDT (10/17) 7:29 PM MDT (10/17)
Length of Visible Light 11h 48m
Length of Day
10h 46m
Waxing Crescent, 7% of the Moon is Illuminated
Oct 17
Waxing Crescent
Oct 21
First Quarter
Oct 29
Full
Nov 6
Last Quarter
Nov 13
New

Hourly Weather History & Observations

Time (MDT) Temp. Windchill Dew Point Humidity Pressure Visibility Wind Dir Wind Speed Gust Speed Precip Events Conditions
12:15 AM 42.8 °F 33.8 °F 35.6 °F 76% 29.38 in 10.0 mi West 21.9 mph 28.8 mph N/A   Clear
12:35 AM 44.6 °F 35.5 °F 35.6 °F 71% 29.38 in 10.0 mi West 25.3 mph 42.6 mph N/A   Partly Cloudy
12:55 AM 44.6 °F 34.9 °F 37.4 °F 76% 29.39 in 10.0 mi West 28.8 mph 39.1 mph N/A   Mostly Cloudy
1:15 AM 41.0 °F 30.0 °F 37.4 °F 87% 29.41 in 10.0 mi West 28.8 mph 40.3 mph N/A   Overcast
1:35 AM 39.2 °F 27.0 °F 35.6 °F 87% 29.41 in 10.0 mi West 32.2 mph 40.3 mph N/A   Overcast
1:55 AM 37.4 °F 25.2 °F 35.6 °F 93% 29.41 in 9.0 mi West 28.8 mph 40.3 mph N/A Rain Light Rain
2:15 AM 37.4 °F 24.8 °F 35.6 °F 93% 29.41 in 7.0 mi West 31.1 mph 42.6 mph N/A   Overcast
2:55 AM 39.2 °F 27.8 °F 39.2 °F 100% 29.42 in 3.0 mi WNW 27.6 mph 39.1 mph 0.06 in   Overcast
3:15 AM 41.0 °F 28.6 °F 39.2 °F 93% 29.44 in 7.0 mi WNW 38.0 mph 46.0 mph 0.01 in Rain Light Rain
3:35 AM 39.2 °F 26.0 °F 39.2 °F 100% 29.45 in 3.0 mi WNW 39.1 mph 49.5 mph 0.04 in Rain Light Rain
3:55 AM 39.2 °F 26.6 °F 37.4 °F 93% 29.46 in 4.0 mi WNW 34.5 mph 50.6 mph 0.07 in   Unknown
4:15 AM 41.0 °F 29.0 °F 37.4 °F 87% 29.48 in 5.0 mi WNW 35.7 mph 46.0 mph N/A   Unknown
7:15 AM - - - N/A% 29.55 in - WNW 32.2 mph 41.4 mph N/A   Unknown
7:35 AM 39.2 °F 27.6 °F 32.0 °F 75% 29.56 in 10.0 mi WNW 28.8 mph 41.4 mph N/A   Partly Cloudy
7:55 AM 39.2 °F 27.0 °F 30.2 °F 70% 29.56 in 10.0 mi WNW 32.2 mph 44.9 mph N/A   Clear
8:15 AM 39.2 °F 27.2 °F 30.2 °F 70% 29.57 in 10.0 mi WNW 31.1 mph 40.3 mph N/A   Clear
8:35 AM 39.2 °F 27.8 °F 28.4 °F 65% 29.58 in 10.0 mi WNW 27.6 mph 40.3 mph N/A   Clear
8:55 AM 41.0 °F 29.0 °F 28.4 °F 61% 29.58 in 10.0 mi WNW 35.7 mph 44.9 mph N/A   Clear
9:15 AM 41.0 °F 29.7 °F 28.4 °F 61% 29.59 in 10.0 mi WNW 31.1 mph 44.9 mph N/A   Clear
9:35 AM 41.0 °F 29.1 °F 28.4 °F 61% 29.60 in 10.0 mi WNW 34.5 mph 46.0 mph N/A   Clear
9:55 AM 42.8 °F 31.4 °F 26.6 °F 53% 29.60 in 10.0 mi WNW 35.7 mph 50.6 mph N/A   Clear
10:15 AM 42.8 °F 31.8 °F 26.6 °F 53% 29.60 in 10.0 mi WNW 33.4 mph 48.3 mph N/A   Clear
10:35 AM 44.6 °F 33.6 °F 26.6 °F 49% 29.60 in 10.0 mi WNW 38.0 mph 52.9 mph N/A   Clear
10:55 AM 44.6 °F 33.3 °F 26.6 °F 49% 29.61 in 10.0 mi WNW 40.3 mph 50.6 mph N/A   Clear
11:15 AM 46.4 °F 36.7 °F 24.8 °F 43% 29.61 in 10.0 mi WNW 33.4 mph 49.5 mph N/A   Clear
11:35 AM 46.4 °F 36.3 °F 23.0 °F 40% 29.61 in 10.0 mi NW 36.8 mph 52.9 mph N/A   Clear
11:55 AM 48.2 °F - 23.0 °F 37% 29.62 in 10.0 mi WNW 39.1 mph 55.2 mph N/A   Clear
12:15 PM 48.2 °F - 21.2 °F 34% 29.62 in 10.0 mi WNW 36.8 mph 48.3 mph N/A   Clear
12:35 PM 48.2 °F - 19.4 °F 32% 29.62 in 10.0 mi WNW 41.4 mph 51.8 mph N/A   Clear
12:55 PM 46.4 °F 36.3 °F 19.4 °F 34% 29.62 in 10.0 mi WNW 36.8 mph 52.9 mph 0.02 in Rain Rain
1:15 PM 48.2 °F - 19.4 °F 32% 29.61 in 10.0 mi NW 35.7 mph 54.1 mph 0.03 in Rain Rain
1:35 PM 48.2 °F - 19.4 °F 32% 29.61 in 10.0 mi WNW 38.0 mph 49.5 mph 0.58 in Rain Heavy Rain
1:55 PM 48.2 °F - 19.4 °F 32% 29.61 in 10.0 mi NW 43.7 mph 55.2 mph 1.16 in Rain Heavy Rain
2:15 PM 48.2 °F - 19.4 °F 32% 29.61 in 10.0 mi WNW 41.4 mph 55.2 mph 0.21 in Rain Heavy Rain
2:35 PM 50.0 °F - 17.6 °F 28% 29.61 in 10.0 mi NW 43.7 mph 55.2 mph 0.25 in Rain Light Rain
2:55 PM 48.2 °F - 17.6 °F 30% 29.62 in 10.0 mi WNW 43.7 mph 61.0 mph 0.45 in Rain Heavy Rain
3:15 PM 48.2 °F - 17.6 °F 30% 29.62 in 10.0 mi WNW 48.3 mph 62.1 mph 0.69 in Rain Heavy Rain
3:35 PM 48.2 °F - 19.4 °F 32% 29.62 in 10.0 mi WNW 46.0 mph 59.8 mph 1.12 in Rain Rain
3:55 PM 48.2 °F - 17.6 °F 30% 29.63 in 10.0 mi NW 44.9 mph 57.5 mph 1.41 in Rain Rain
4:15 PM 48.2 °F - 19.4 °F 32% 29.64 in 10.0 mi NW 35.7 mph 50.6 mph 0.10 in Rain Rain
4:35 PM 48.2 °F - 17.6 °F 30% 29.64 in 10.0 mi NW 43.7 mph 62.1 mph 0.36 in Rain Light Rain
4:55 PM 46.4 °F 36.1 °F 17.6 °F 32% 29.65 in 10.0 mi NW 38.0 mph 52.9 mph 0.57 in Rain Rain
5:15 PM 46.4 °F 36.0 °F 17.6 °F 32% 29.65 in 10.0 mi NW 39.1 mph 50.6 mph 0.16 in Rain Light Rain
5:35 PM 46.4 °F 35.7 °F 17.6 °F 32% 29.66 in 10.0 mi NW 41.4 mph 51.8 mph 0.56 in Rain Heavy Rain
5:55 PM 44.6 °F 33.9 °F 19.4 °F 37% 29.68 in 10.0 mi NW 35.7 mph 48.3 mph 0.98 in Rain Heavy Rain
6:15 PM 44.6 °F 33.9 °F 21.2 °F 39% 29.69 in 10.0 mi NW 35.7 mph 47.2 mph 0.37 in Rain Heavy Rain
6:35 PM 42.8 °F 32.1 °F 23.0 °F 46% 29.71 in 10.0 mi NW 31.1 mph 39.1 mph 0.75 in Rain Heavy Rain
6:55 PM 42.8 °F 31.9 °F 23.0 °F 46% 29.71 in 10.0 mi NW 32.2 mph 43.7 mph 1.40 in Rain Heavy Rain
7:15 PM 42.8 °F 32.5 °F 23.0 °F 46% 29.71 in 10.0 mi NW 28.8 mph 43.7 mph 0.47 in Rain Heavy Rain
7:35 PM 42.8 °F 31.3 °F 23.0 °F 46% 29.72 in 10.0 mi NW 36.8 mph 47.2 mph 0.92 in Rain Heavy Rain
7:55 PM 41.0 °F 29.7 °F 23.0 °F 49% 29.72 in 10.0 mi NW 31.1 mph 42.6 mph 1.45 in Rain Heavy Rain
8:15 PM 41.0 °F 29.7 °F 23.0 °F 49% 29.73 in 10.0 mi NW 31.1 mph 44.9 mph 0.53 in Rain Heavy Rain
8:35 PM 41.0 °F 28.6 °F 23.0 °F 49% 29.73 in 10.0 mi NW 38.0 mph 47.2 mph 1.33 in Rain Heavy Rain
8:55 PM 41.0 °F 28.0 °F 23.0 °F 49% 29.74 in 10.0 mi NW 42.6 mph 50.6 mph 1.62 in Rain Heavy Rain
9:15 PM 41.0 °F 30.0 °F 23.0 °F 49% 29.75 in 10.0 mi NW 28.8 mph 50.6 mph 0.79 in Rain Heavy Rain
9:35 PM 41.0 °F 28.2 °F 23.0 °F 49% 29.74 in 10.0 mi NW 41.4 mph 52.9 mph 1.34 in Rain Heavy Rain
9:55 PM 41.0 °F 28.6 °F 23.0 °F 49% 29.74 in 10.0 mi NW 38.0 mph 54.1 mph 1.44 in Rain Light Rain
10:15 PM 41.0 °F 29.5 °F 23.0 °F 49% 29.75 in 10.0 mi NW 32.2 mph 49.5 mph N/A   Overcast
10:35 PM 41.0 °F 29.7 °F 24.8 °F 53% 29.75 in 10.0 mi NW 31.1 mph 52.9 mph 0.01 in Rain Light Rain
10:55 PM 41.0 °F 28.8 °F 24.8 °F 53% 29.75 in 10.0 mi NW 36.8 mph 49.5 mph 0.02 in Rain Light Rain
11:15 PM 41.0 °F 29.8 °F 24.8 °F 53% 29.76 in 10.0 mi NW 29.9 mph 48.3 mph 0.01 in Rain Rain
11:35 PM 41.0 °F 28.8 °F 24.8 °F 53% 29.76 in 10.0 mi NW 36.8 mph 48.3 mph 0.28 in Rain Heavy Rain
11:55 PM 39.2 °F 26.6 °F 24.8 °F 56% 29.76 in 10.0 mi NW 34.5 mph 51.8 mph 0.93 in Rain Heavy Rain